Location: Mahannah Oil Field
(37.4664°N, 96.6003°W)
Time: 00:31:36
(UTC+00:00)

A-11 Canister half - Pass Details

Date: 01 February 2021
Orbit: 1524 x 1684 km, 47.3° (Epoch: 25 February)

Event Time Altitude Azimuth Distance (km) Brightness Sun altitude
Rises 21:33:49 0° 282° (WNW) 4,676 12.0 22.1°
Reaches altitude 10° 21:37:03 10° 289° (WNW) 3,701 11.5 21.6°
Maximum altitude 21:45:57 46° 1° (N) 1,986 9.6 20.3°
Drops below altitude 10° 21:55:06 10° 73° (ENE) 3,795 10.6 18.9°
Sets 21:58:27 0° 80° (E) 4,803 11.1 18.4°
